Regional Weather Roundup
Issued by NWS

Home | Current Version | Previous Version | Text Only | Print | Product List | Glossary On
Versions: 1 2 3 4 5 6 7 8 9 10 11 12 13 14 15 16 17 18 19 20 21 22 23 24 25 26 27 28 29 30 31 32 33 34 35 36 37 38 39 40 41 42 43 44 45 46 47 48 49 50
000
ASUS43 KLMK 281710
RWRKY
KENTUCKY REGIONAL WEATHER ROUNDUP
NATIONAL WEATHER SERVICE LOUISVILLE KY
100 PM EDT SAT MAR 28 2015

NOTE "FAIR" INDICATES FEW OR NO CLOUDS BELOW 12,000 FEET
WITH NO SIGNIFICANT WEATHER AND/OR OBSTRUCTIONS TO VISIBILITY.

KYZ001>023-026-027-061>063-070>075-281800-
WESTERN AND SOUTH CENTRAL KENTUCKY

CITY           SKY/WX    TMP DP  RH WIND       PRES   REMARKS
PADUCAH        SUNNY     40  19  43 NE5       30.33R
HENDERSON      SUNNY     34  19  55 CALM      30.34S
OWENSBORO      SUNNY     33  16  50 VRB5      30.34R WCI  28
HOPKINSVILLE   SUNNY     38  17  42 NW8       30.30S WCI  32
BOWLING GREEN  SUNNY     37  13  37 VRB3      30.30S
GLASGOW        SUNNY     36  17  45 W3        30.28S
$$

KYZ024-025-028>034-038-045-046-053-281800-
NORTH CENTRAL KENTUCKY

CITY           SKY/WX    TMP DP  RH WIND       PRES   REMARKS
LOUISVILLE/SDF MOSUNNY   36  13  38 N8        30.31S WCI  30
LOUISVILLE/LOU SUNNY     35  15  44 MISG      30.31S
FORT KNOX      SUNNY     35  17  48 VRB6      30.28R WCI  30
$$

KYZ035>037-039>044-047>052-055>060-089>105-281800-
NORTHEAST KENTUCKY

CITY           SKY/WX    TMP DP  RH WIND       PRES   REMARKS
LEXINGTON      SUNNY     33  12  41 NE8       30.26S WCI  26
COVINGTON      MOSUNNY   32  12  43 N10G16    30.28R WCI  24
FRANKFORT      SUNNY     35  12  38 MISG      30.26F
$$

KYZ054-064>069-076>088-106>120-281800-
SOUTHEAST KENTUCKY

CITY           SKY/WX    TMP DP  RH WIND       PRES   REMARKS
JACKSON        SUNNY     34  10  37 VRB5      30.19S WCI  30
LONDON         SUNNY     35  11  36 NE9       30.21S WCI  28
SOMERSET       MOSUNNY   34  14  44 NE5       30.26S WCI  30
MIDDLESBORO    SUNNY     37  17  45 NW7       30.20S WCI  31
MONTICELLO     SUNNY     36  14  40 VRB5      30.27S WCI  32
$$



USA.gov is the U.S. government's official web portal to all federal, state and local government web resources and services.